Flag for U.S.A. Weather past 2 weeks in Chula Vista, California, U.S.A.

Now
66 °F

Clear.


Feels Like: 66 °F
Forecast: 63 / 73 °F
Wind: 6 mph from West

Location: Brown Field Municipal Airport

Current Time: Oct 19, 2014 at 9:29:24 PM

Latest Report: Oct 19, 2014 at 7:53 PM


Visibility: 10 mi

Pressure: 29.87 "Hg

Humidity: 81%

Dew point: 60 °F

Location of Chula VistaLocation

Historic Weather in Chula Vista — Graph

°F

Chula Vista temperature yesterday

Maximum temperature yesterday: 74 °F (at 1:53 PM)
Minimum temperature yesterday: 59 °F (at 4:53 AM)
Average temperature yesterday: 66 °F

Past Weeks' High & Low Weather Summary

 TemperatureHumidityPressure
High91 °F (Oct 5, 10:53 AM)97% (Oct 14, 1:53 AM)30.02 "Hg (Oct 14, 1:53 AM)
Low57 °F (Oct 13, 5:53 AM)9% (Oct 6, 10:53 AM)29.80 "Hg (Oct 8, 4:53 AM)
Average69 °F65%29.91 "Hg
* Reported Oct 4 7:53 PM — Oct 19 7:53 PM, Chula Vista, Weather by CustomWeather, © 2014

Note: Actual official high and low records may vary slightly from our data, if they occured in-between our weather recording intervals... More about our weather records

Advertising

Chula Vista weather history for previous 24 hours

 ConditionsComfort  
Time TempWeatherWind HumidityBarometerVisibility
7:53 PM
Oct 19
66 °FClear.6 mph81%29.87 "Hg10 mi
6:53 PM67 °FOvercast.5 mph79%29.85 "Hg10 mi
5:53 PM69 °FOvercast.7 mph73%29.85 "Hg10 mi
4:53 PM70 °FOvercast.8 mph71%29.84 "Hg10 mi
3:53 PM71 °FOvercast.13 mph68%29.84 "Hg10 mi
2:53 PM72 °FPassing clouds.13 mph68%29.85 "Hg10 mi
1:53 PM74 °FSunny.8 mph62%29.85 "Hg10 mi
12:53 PM75 °FSunny.13 mph58%29.86 "Hg10 mi
11:53 AM75 °FSunny.6 mph54%29.88 "Hg10 mi
10:53 AM73 °FScattered clouds.5 mph57%29.91 "Hg10 mi
9:53 AM69 °FScattered clouds.5 mph66%29.92 "Hg10 mi
8:53 AM67 °FOvercast.5 mph71%29.92 "Hg10 mi
7:53 AM66 °FOvercast.3 mph70%29.90 "Hg10 mi
6:53 AM64 °FOvercast.3 mph75%29.88 "Hg10 mi
5:53 AM64 °FOvercast.3 mph78%29.87 "Hg10 mi
4:53 AM64 °FOvercast.No wind75%29.85 "Hg10 mi
3:53 AM63 °FOvercast.3 mph78%29.85 "Hg10 mi
2:53 AM63 °FOvercast.No wind78%29.86 "Hg10 mi
1:53 AM64 °FOvercast.No wind78%29.87 "Hg10 mi
12:53 AM62 °FOvercast.5 mph80%29.87 "Hg10 mi
11:53 PM
Oct 18
62 °FClear.No wind83%29.87 "Hg10 mi
10:53 PM63 °FClear.No wind81%29.87 "Hg10 mi
9:53 PM64 °FClear.No wind78%29.88 "Hg10 mi
Weather by CustomWeather, © 2014

See weather overviewHow to use our weather pages